HVN148 VVDN-VVTS

Flight info

Callsign HVN148
Flight time 1h 15m
Altitude 38000
Route SADIN1G SADIN Q1 BMT W12 RUNOP RUNOP7D
Aircraft A20N/M-SDE2E3FGHIRWXY/LB1

Departure

Time 2026-04-21 15:03
Airport Da Nang International Airport (VVDN)

Arrival

Time 2026-04-21 16:18
Airport Tan Son Nhat International Airport (VVTS)
Time Latitude Longitude Altitude Speed Heading
2026-04-21 14:27 16.05227 108.20210 32 ft 0 kts 83°
2026-04-21 14:52 16.05224 108.20190 30 ft 4 kts 82°
2026-04-21 14:52 16.05221 108.20162 32 ft 4 kts 82°
2026-04-21 14:52 16.05217 108.20135 32 ft 4 kts 82°
2026-04-21 14:53 16.05213 108.20107 32 ft 4 kts 83°
2026-04-21 14:53 16.05211 108.20079 32 ft 4 kts 97°
2026-04-21 14:53 16.05218 108.20058 32 ft 3 kts 170°
2026-04-21 14:53 16.05243 108.20054 32 ft 4 kts 170°
2026-04-21 14:54 16.05268 108.20049 32 ft 2 kts 170°
2026-04-21 14:54 16.05269 108.20049 32 ft 0 kts 170°
2026-04-21 14:57 16.05254 108.20052 32 ft 5 kts 170°
2026-04-21 14:57 16.05207 108.20061 32 ft 9 kts 175°
2026-04-21 14:57 16.05142 108.20027 32 ft 9 kts 200°
2026-04-21 14:58 16.05112 108.20043 32 ft 8 kts 147°
2026-04-21 14:58 16.05022 108.20084 32 ft 17 kts 172°
2026-04-21 14:58 16.04892 108.20104 32 ft 20 kts 172°
2026-04-21 14:58 16.04744 108.20127 32 ft 23 kts 172°
2026-04-21 14:59 16.04580 108.20149 33 ft 25 kts 172°
2026-04-21 14:59 16.04403 108.20177 33 ft 27 kts 175°
2026-04-21 14:59 16.04218 108.20205 34 ft 27 kts 172°
2026-04-21 14:59 16.04026 108.20231 35 ft 29 kts 172°
2026-04-21 15:00 16.03825 108.20260 36 ft 30 kts 172°
2026-04-21 15:00 16.03614 108.20291 36 ft 31 kts 172°
2026-04-21 15:00 16.03396 108.20322 36 ft 32 kts 174°
2026-04-21 15:00 16.03198 108.20351 35 ft 23 kts 171°
2026-04-21 15:01 16.03042 108.20374 36 ft 23 kts 173°
2026-04-21 15:01 16.02937 108.20327 35 ft 10 kts 241°
2026-04-21 15:01 16.02932 108.20253 35 ft 12 kts 305°
2026-04-21 15:01 16.02966 108.20239 35 ft 0 kts 353°
2026-04-21 15:02 16.03080 108.20224 33 ft 52 kts 353°
2026-04-21 15:02 16.03728 108.20136 38 ft 132 kts 351°
2026-04-21 15:02 16.04826 108.19978 286 ft 174 kts 353°
2026-04-21 15:03 16.06112 108.19822 836 ft 199 kts 356°
2026-04-21 15:03 16.07575 108.19710 1298 ft 226 kts 356°
2026-04-21 15:03 16.09294 108.19568 1431 ft 263 kts 355°
2026-04-21 15:03 16.11074 108.19389 1515 ft 247 kts 355°
2026-04-21 15:04 16.12746 108.19334 1558 ft 241 kts
2026-04-21 15:04 16.14434 108.19393 1777 ft 244 kts
2026-04-21 15:04 16.16047 108.19901 2515 ft 244 kts 35°
2026-04-21 15:04 16.17154 108.21148 3541 ft 238 kts 65°
2026-04-21 15:05 16.17546 108.22812 4414 ft 240 kts 90°
2026-04-21 15:05 16.17562 108.26353 6192 ft 249 kts 91°
2026-04-21 15:05 16.17557 108.28168 7021 ft 252 kts 91°
2026-04-21 15:06 16.17565 108.30039 7671 ft 269 kts 90°
2026-04-21 15:06 16.17584 108.32068 7945 ft 290 kts 90°
2026-04-21 15:06 16.17609 108.34175 8045 ft 292 kts 91°
2026-04-21 15:06 16.17227 108.36227 8061 ft 291 kts 115°
2026-04-21 15:07 16.16052 108.37881 8060 ft 289 kts 141°
2026-04-21 15:07 16.14293 108.38839 8060 ft 288 kts 167°
2026-04-21 15:07 16.12307 108.39007 8060 ft 288 kts 181°
2026-04-21 15:07 16.10301 108.38979 8062 ft 287 kts 182°
2026-04-21 15:08 16.08299 108.38943 8069 ft 288 kts 181°
2026-04-21 15:08 16.06296 108.38932 8329 ft 291 kts 180°
2026-04-21 15:08 16.04264 108.38849 9161 ft 291 kts 190°
2026-04-21 15:08 16.02275 108.38427 10119 ft 294 kts 193°
2026-04-21 15:09 16.00225 108.37951 10634 ft 314 kts 193°
2026-04-21 15:09 15.97996 108.37435 10942 ft 338 kts 193°
2026-04-21 15:09 15.95641 108.36902 11500 ft 350 kts 192°
2026-04-21 15:09 15.93246 108.36370 12330 ft 354 kts 192°
2026-04-21 15:10 15.90858 108.35846 13132 ft 358 kts 193°
2026-04-21 15:10 15.88405 108.35309 13892 ft 363 kts 193°
2026-04-21 15:10 15.85918 108.34764 14578 ft 368 kts 193°
2026-04-21 15:10 15.83399 108.34213 15248 ft 373 kts 193°
2026-04-21 15:11 15.80839 108.33652 15927 ft 378 kts 193°
2026-04-21 15:11 15.78253 108.33085 16577 ft 383 kts 193°
2026-04-21 15:11 15.75624 108.32508 17225 ft 387 kts 193°
2026-04-21 15:11 15.72974 108.31927 17867 ft 392 kts 193°
2026-04-21 15:12 15.70294 108.31339 18452 ft 396 kts 193°
2026-04-21 15:12 15.67588 108.30746 19017 ft 400 kts 192°
2026-04-21 15:12 15.64851 108.30146 19561 ft 403 kts 192°
2026-04-21 15:12 15.62132 108.29551 20111 ft 407 kts 192°
2026-04-21 15:13 15.59356 108.28943 20655 ft 410 kts 192°
2026-04-21 15:13 15.56565 108.28331 21202 ft 414 kts 192°
2026-04-21 15:13 15.53717 108.27708 21735 ft 418 kts 192°
2026-04-21 15:13 15.50866 108.27084 22258 ft 421 kts 192°
2026-04-21 15:14 15.47976 108.26451 22788 ft 425 kts 192°
2026-04-21 15:14 15.45077 108.25817 23313 ft 429 kts 192°
2026-04-21 15:14 15.42155 108.25178 23751 ft 432 kts 192°
2026-04-21 15:14 15.39186 108.24529 24179 ft 436 kts 192°
2026-04-21 15:15 15.36206 108.23880 24616 ft 439 kts 192°
2026-04-21 15:15 15.33255 108.23237 25016 ft 442 kts 192°
2026-04-21 15:15 15.30188 108.22566 25446 ft 445 kts 192°
2026-04-21 15:15 15.27193 108.21910 25850 ft 448 kts 192°
2026-04-21 15:16 15.24127 108.21240 26243 ft 451 kts 192°
2026-04-21 15:16 15.21045 108.20567 26639 ft 455 kts 192°
2026-04-21 15:16 15.17940 108.19890 27017 ft 458 kts 192°
2026-04-21 15:16 15.14813 108.19208 27396 ft 461 kts 192°
2026-04-21 15:17 15.11674 108.18524 27781 ft 464 kts 192°
2026-04-21 15:17 15.08490 108.17902 28129 ft 467 kts 188°
2026-04-21 15:17 15.05230 108.17640 28496 ft 470 kts 181°
2026-04-21 15:17 15.01959 108.17581 28845 ft 473 kts 181°
2026-04-21 15:18 14.98655 108.17515 29185 ft 476 kts 181°
2026-04-21 15:18 14.95338 108.17443 29513 ft 479 kts 181°
2026-04-21 15:18 14.91989 108.17369 29872 ft 481 kts 181°
2026-04-21 15:18 14.88627 108.17294 30155 ft 485 kts 181°
2026-04-21 15:19 14.85254 108.17219 30475 ft 487 kts 181°
2026-04-21 15:19 14.81922 108.17145 30778 ft 489 kts 181°
2026-04-21 15:19 14.78498 108.17069 31081 ft 491 kts 181°
2026-04-21 15:19 14.75068 108.16994 31461 ft 492 kts 181°
2026-04-21 15:20 14.71663 108.16918 31858 ft 492 kts 181°
2026-04-21 15:20 14.68247 108.16843 32261 ft 491 kts 181°
2026-04-21 15:20 14.64824 108.16769 32653 ft 491 kts 181°
2026-04-21 15:20 14.61400 108.16693 33041 ft 490 kts 181°
2026-04-21 15:21 14.57999 108.16619 33408 ft 490 kts 181°
2026-04-21 15:21 14.54586 108.16544 33781 ft 490 kts 181°
2026-04-21 15:21 14.51183 108.16469 34119 ft 490 kts 181°
2026-04-21 15:21 14.47777 108.16394 34459 ft 489 kts 181°
2026-04-21 15:22 14.44434 108.16320 34787 ft 488 kts 181°
2026-04-21 15:22 14.41039 108.16245 35107 ft 487 kts 181°
2026-04-21 15:22 14.37643 108.16170 35428 ft 487 kts 181°
2026-04-21 15:22 14.34274 108.16096 35761 ft 486 kts 181°
2026-04-21 15:23 14.30885 108.16021 35911 ft 485 kts 181°
2026-04-21 15:23 14.27515 108.15947 35947 ft 484 kts 181°
2026-04-21 15:23 14.20790 108.15799 35952 ft 483 kts 181°
2026-04-21 15:24 14.14117 108.15652 35947 ft 483 kts 181°
2026-04-21 15:24 14.07386 108.15504 35946 ft 483 kts 181°
2026-04-21 15:25 14.00662 108.15356 35941 ft 483 kts 181°
2026-04-21 15:25 13.93941 108.15209 35938 ft 483 kts 181°
2026-04-21 15:26 13.87223 108.15062 35931 ft 483 kts 181°
2026-04-21 15:26 13.80496 108.14914 35924 ft 483 kts 181°
2026-04-21 15:27 13.73825 108.14768 35924 ft 483 kts 181°
2026-04-21 15:27 13.67107 108.14620 35919 ft 483 kts 181°
2026-04-21 15:28 13.60373 108.14472 35915 ft 483 kts 181°
2026-04-21 15:28 13.53664 108.14325 35908 ft 483 kts 181°
2026-04-21 15:29 13.46930 108.14177 35910 ft 483 kts 181°
2026-04-21 15:29 13.40206 108.14030 35905 ft 483 kts 181°
2026-04-21 15:30 13.33503 108.13883 35908 ft 483 kts 181°
2026-04-21 15:30 13.26817 108.13737 35908 ft 483 kts 181°
2026-04-21 15:31 13.20092 108.13590 35909 ft 483 kts 180°
2026-04-21 15:31 13.14516 108.13468 35910 ft 483 kts 180°
2026-04-21 15:32 13.07785 108.13321 35916 ft 482 kts 180°
2026-04-21 15:32 13.01078 108.13175 35915 ft 482 kts 180°
2026-04-21 15:33 12.94382 108.13029 35910 ft 481 kts 180°
2026-04-21 15:33 12.87685 108.12883 35909 ft 481 kts 180°
2026-04-21 15:34 12.80998 108.12738 35910 ft 480 kts 180°
2026-04-21 15:34 12.74358 108.12594 35913 ft 480 kts 180°
2026-04-21 15:35 12.67689 108.12449 35910 ft 479 kts 180°
2026-04-21 15:35 12.61018 108.12304 35913 ft 479 kts 180°
2026-04-21 15:36 12.54376 108.12160 35913 ft 478 kts 180°
2026-04-21 15:36 12.47721 108.12016 35917 ft 477 kts 180°
2026-04-21 15:37 12.41131 108.11873 35920 ft 477 kts 180°
2026-04-21 15:37 12.34511 108.11729 35922 ft 476 kts 180°
2026-04-21 15:38 12.27884 108.11586 35926 ft 475 kts 180°
2026-04-21 15:38 12.21312 108.11444 35932 ft 475 kts 180°
2026-04-21 15:39 12.16429 108.11339 35933 ft 475 kts 180°
2026-04-21 15:39 12.09813 108.11198 35939 ft 474 kts 180°
2026-04-21 15:40 12.03201 108.11053 35735 ft 475 kts 180°
2026-04-21 15:40 11.99899 108.10982 35419 ft 476 kts 180°
2026-04-21 15:40 11.96582 108.10908 34764 ft 479 kts 181°
2026-04-21 15:41 11.93248 108.10488 33777 ft 488 kts 192°
2026-04-21 15:41 11.90006 108.09386 32697 ft 494 kts 204°
2026-04-21 15:41 11.87011 108.07637 31765 ft 497 kts 216°
2026-04-21 15:41 11.84307 108.05449 30856 ft 498 kts 221°
2026-04-21 15:42 11.81727 108.03177 30211 ft 494 kts 221°
2026-04-21 15:42 11.79121 108.00918 29680 ft 486 kts 220°
2026-04-21 15:42 11.76530 107.98748 29086 ft 479 kts 219°
2026-04-21 15:42 11.73954 107.96646 28460 ft 473 kts 218°
2026-04-21 15:43 11.71386 107.94583 27835 ft 468 kts 218°
2026-04-21 15:43 11.68829 107.92542 27176 ft 464 kts 218°
2026-04-21 15:43 11.66309 107.90534 26609 ft 458 kts 218°
2026-04-21 15:43 11.63802 107.88538 25993 ft 454 kts 218°
2026-04-21 15:44 11.61320 107.86560 25380 ft 450 kts 218°
2026-04-21 15:44 11.58860 107.84600 24759 ft 447 kts 218°
2026-04-21 15:44 11.56427 107.82661 24135 ft 444 kts 218°
2026-04-21 15:44 11.54036 107.80756 23541 ft 441 kts 218°
2026-04-21 15:45 11.51628 107.78838 22917 ft 436 kts 218°
2026-04-21 15:45 11.49254 107.76948 22318 ft 430 kts 218°
2026-04-21 15:45 11.46907 107.75079 21742 ft 425 kts 218°
2026-04-21 15:45 11.44633 107.73269 21547 ft 410 kts 218°
2026-04-21 15:46 11.42433 107.71518 21344 ft 388 kts 218°
2026-04-21 15:46 11.40363 107.69871 21148 ft 368 kts 218°
2026-04-21 15:46 11.38377 107.68291 20711 ft 357 kts 218°
2026-04-21 15:46 11.36433 107.66745 20082 ft 354 kts 218°
2026-04-21 15:47 11.34526 107.65231 19489 ft 350 kts 218°
2026-04-21 15:47 11.32622 107.63717 18954 ft 345 kts 218°
2026-04-21 15:47 11.30744 107.62224 18416 ft 340 kts 218°
2026-04-21 15:47 11.28894 107.60753 17811 ft 336 kts 218°
2026-04-21 15:48 11.27054 107.59291 17155 ft 333 kts 218°
2026-04-21 15:48 11.25234 107.57844 16516 ft 330 kts 218°
2026-04-21 15:48 11.23429 107.56410 15890 ft 328 kts 218°
2026-04-21 15:48 11.21640 107.54988 15284 ft 325 kts 218°
2026-04-21 15:49 11.19867 107.53580 14697 ft 323 kts 218°
2026-04-21 15:49 11.18097 107.52175 14108 ft 320 kts 218°
2026-04-21 15:49 11.16357 107.50793 13653 ft 315 kts 218°
2026-04-21 15:49 11.14620 107.49415 13171 ft 316 kts 218°
2026-04-21 15:50 11.12905 107.48054 12714 ft 317 kts 218°
2026-04-21 15:50 11.11172 107.46680 12251 ft 314 kts 217°
2026-04-21 15:50 11.09442 107.45307 11790 ft 317 kts 217°
2026-04-21 15:50 11.07716 107.43937 11469 ft 312 kts 217°
2026-04-21 15:51 11.06022 107.42594 11194 ft 305 kts 217°
2026-04-21 15:51 11.04354 107.41271 10983 ft 306 kts 217°
2026-04-21 15:51 11.02681 107.39916 10793 ft 310 kts 222°
2026-04-21 15:51 11.01351 107.38210 10537 ft 306 kts 241°
2026-04-21 15:52 11.00593 107.36206 10410 ft 305 kts 254°
2026-04-21 15:52 10.99991 107.34116 10120 ft 308 kts 253°
2026-04-21 15:52 10.99376 107.32025 9673 ft 309 kts 253°
2026-04-21 15:52 10.98755 107.29928 9178 ft 310 kts 253°
2026-04-21 15:53 10.98142 107.27865 8941 ft 300 kts 253°
2026-04-21 15:53 10.97469 107.25874 8896 ft 297 kts 242°
2026-04-21 15:53 10.96190 107.24266 8894 ft 299 kts 217°
2026-04-21 15:53 10.94342 107.23333 8891 ft 297 kts 192°
2026-04-21 15:54 10.92296 107.23260 8886 ft 295 kts 172°
2026-04-21 15:54 10.90272 107.23593 8896 ft 295 kts 168°
2026-04-21 15:54 10.88264 107.23984 8893 ft 295 kts 168°
2026-04-21 15:54 10.86212 107.24163 8895 ft 296 kts 180°
2026-04-21 15:55 10.84169 107.23932 8898 ft 297 kts 188°
2026-04-21 15:55 10.82138 107.23576 8891 ft 297 kts 188°
2026-04-21 15:55 10.80098 107.23218 8897 ft 297 kts 188°
2026-04-21 15:55 10.78057 107.22861 8897 ft 297 kts 188°
2026-04-21 15:56 10.76064 107.22348 8888 ft 297 kts 199°
2026-04-21 15:56 10.74180 107.21471 8889 ft 298 kts 208°
2026-04-21 15:56 10.72499 107.20258 8832 ft 299 kts 227°
2026-04-21 15:56 10.71415 107.18487 8505 ft 300 kts 251°
2026-04-21 15:57 10.71137 107.16407 8029 ft 300 kts 276°
2026-04-21 15:57 10.71745 107.14399 7554 ft 298 kts 301°
2026-04-21 15:57 10.72563 107.13114 7212 ft 297 kts 307°
2026-04-21 15:57 10.73797 107.11421 6739 ft 297 kts 308°
2026-04-21 15:58 10.74999 107.09748 6275 ft 290 kts 307°
2026-04-21 15:58 10.76130 107.08076 5779 ft 283 kts 305°
2026-04-21 15:58 10.77199 107.06416 5299 ft 278 kts 304°
2026-04-21 15:58 10.78226 107.04775 4821 ft 273 kts 303°
2026-04-21 15:59 10.79230 107.03150 4343 ft 269 kts 303°
2026-04-21 15:59 10.80202 107.01572 4081 ft 257 kts 303°
2026-04-21 15:59 10.81139 107.00048 4013 ft 259 kts 303°
2026-04-21 15:59 10.82091 106.98503 4000 ft 256 kts 303°
2026-04-21 16:00 10.83034 106.96971 4002 ft 256 kts 303°
2026-04-21 16:00 10.83980 106.95437 3998 ft 251 kts 303°
2026-04-21 16:00 10.84911 106.93926 4002 ft 257 kts 302°
2026-04-21 16:00 10.85862 106.92384 4001 ft 257 kts 302°
2026-04-21 16:01 10.86781 106.90833 3999 ft 257 kts 295°
2026-04-21 16:01 10.87219 106.89102 4002 ft 249 kts 276°
2026-04-21 16:01 10.87408 106.87374 4002 ft 245 kts 276°
2026-04-21 16:01 10.87604 106.85643 4002 ft 246 kts 276°
2026-04-21 16:02 10.87804 106.83924 4001 ft 246 kts 276°
2026-04-21 16:02 10.87945 106.82194 4001 ft 245 kts 268°
2026-04-21 16:02 10.87703 106.80513 3996 ft 244 kts 255°
2026-04-21 16:02 10.87189 106.78857 3872 ft 246 kts 249°
2026-04-21 16:03 10.86571 106.77232 3485 ft 248 kts 248°
2026-04-21 16:03 10.85953 106.75575 2974 ft 253 kts 246°
2026-04-21 16:03 10.85337 106.73932 2813 ft 242 kts 246°
2026-04-21 16:03 10.84758 106.72373 2711 ft 230 kts 249°
2026-04-21 16:04 10.84626 106.70858 2602 ft 224 kts 281°
2026-04-21 16:04 10.85223 106.69438 2507 ft 215 kts 299°
2026-04-21 16:04 10.85985 106.68165 2395 ft 207 kts 312°
2026-04-21 16:04 10.87178 106.67408 2310 ft 206 kts 352°
2026-04-21 16:05 10.88547 106.67386 2374 ft 186 kts
2026-04-21 16:05 10.89833 106.67494 2380 ft 207 kts
2026-04-21 16:05 10.91395 106.67652 2372 ft 239 kts
2026-04-21 16:05 10.93068 106.67826 2357 ft 241 kts
2026-04-21 16:06 10.94734 106.68002 2200 ft 243 kts
2026-04-21 16:06 10.96411 106.68188 2026 ft 239 kts
2026-04-21 16:06 10.98063 106.68435 1996 ft 240 kts 21°
2026-04-21 16:06 10.99441 106.69301 2001 ft 231 kts 53°
2026-04-21 16:07 11.00122 106.70724 2001 ft 224 kts 85°
2026-04-21 16:07 11.00257 106.72271 2003 ft 222 kts 89°
2026-04-21 16:07 11.00366 106.73862 2000 ft 222 kts 89°
2026-04-21 16:07 11.00473 106.75415 1997 ft 222 kts 89°
2026-04-21 16:08 11.00689 106.78538 2002 ft 221 kts 89°
2026-04-21 16:08 11.00792 106.80102 1999 ft 223 kts 89°
2026-04-21 16:08 11.00899 106.81675 2000 ft 222 kts 89°
2026-04-21 16:09 11.01001 106.83234 2000 ft 221 kts 89°
2026-04-21 16:09 11.01108 106.84791 2003 ft 221 kts 89°
2026-04-21 16:09 11.01160 106.86360 1997 ft 219 kts 99°
2026-04-21 16:09 11.00581 106.87742 2006 ft 215 kts 132°
2026-04-21 16:10 10.99471 106.88772 1998 ft 216 kts 139°
2026-04-21 16:10 10.98328 106.89757 2005 ft 215 kts 139°
2026-04-21 16:10 10.97120 106.90631 1998 ft 218 kts 156°
2026-04-21 16:10 10.95623 106.90813 2004 ft 223 kts 188°
2026-04-21 16:11 10.94215 106.90095 2006 ft 231 kts 217°
2026-04-21 16:11 10.93041 106.88991 2001 ft 230 kts 219°
2026-04-21 16:11 10.91885 106.87885 1999 ft 223 kts 219°
2026-04-21 16:11 10.90805 106.86837 1999 ft 209 kts 222°
2026-04-21 16:12 10.90200 106.86105 2003 ft 201 kts 231°
2026-04-21 16:12 10.89356 106.84527 2000 ft 177 kts 242°
2026-04-21 16:12 10.88921 106.83445 1998 ft 155 kts 242°
2026-04-21 16:12 10.88561 106.82499 1994 ft 136 kts 242°
2026-04-21 16:13 10.88215 106.81598 1996 ft 138 kts 242°
2026-04-21 16:13 10.87875 106.80693 2003 ft 138 kts 243°
2026-04-21 16:13 10.87532 106.79783 1999 ft 138 kts 242°
2026-04-21 16:13 10.87191 106.78874 2001 ft 138 kts 243°
2026-04-21 16:14 10.86848 106.77961 2003 ft 138 kts 243°
2026-04-21 16:14 10.86506 106.77051 2000 ft 138 kts 243°
2026-04-21 16:14 10.86161 106.76132 1974 ft 139 kts 243°
2026-04-21 16:14 10.85817 106.75215 1801 ft 138 kts 243°
2026-04-21 16:15 10.85478 106.74311 1626 ft 135 kts 243°
2026-04-21 16:15 10.85144 106.73418 1462 ft 136 kts 243°
2026-04-21 16:15 10.84813 106.72528 1255 ft 137 kts 244°
2026-04-21 16:15 10.84491 106.71633 1039 ft 131 kts 245°
2026-04-21 16:16 10.84161 106.70759 937 ft 135 kts 244°
2026-04-21 16:16 10.83821 106.69877 768 ft 130 kts 245°
2026-04-21 16:16 10.83516 106.69040 566 ft 121 kts 246°
2026-04-21 16:16 10.83221 106.68229 403 ft 125 kts 245°
2026-04-21 16:17 10.82908 106.67408 256 ft 122 kts 244°
2026-04-21 16:17 10.82602 106.66616 138 ft 118 kts 245°
2026-04-21 16:17 10.82324 106.65879 44 ft 108 kts 246°
2026-04-21 16:17 10.82110 106.65331 39 ft 53 kts 250°
2026-04-21 16:18 10.82037 106.65133 38 ft 23 kts 249°
2026-04-21 16:18 10.81975 106.64966 36 ft 29 kts 249°
2026-04-21 16:18 10.81895 106.64761 39 ft 32 kts 246°
2026-04-21 16:18 10.81754 106.64602 39 ft 17 kts 222°
2026-04-21 16:19 10.81714 106.64567 37 ft 9 kts 219°
2026-04-21 16:19 10.81656 106.64518 39 ft 13 kts 223°
2026-04-21 16:19 10.81597 106.64437 39 ft 16 kts 236°
2026-04-21 16:19 10.81557 106.64330 39 ft 17 kts 254°
2026-04-21 16:20 10.81500 106.64307 39 ft 8 kts 164°
2026-04-21 16:20 10.81441 106.64328 39 ft 10 kts 157°
2026-04-21 16:20 10.81361 106.64359 39 ft 14 kts 160°
2026-04-21 16:20 10.81264 106.64402 39 ft 16 kts 133°
2026-04-21 16:21 10.81269 106.64500 39 ft 16 kts 69°
2026-04-21 16:21 10.81313 106.64615 39 ft 19 kts 68°
2026-04-21 16:21 10.81364 106.64752 37 ft 22 kts 70°
2026-04-21 16:21 10.81422 106.64908 38 ft 25 kts 69°
2026-04-21 16:22 10.81466 106.65026 39 ft 0 kts 70°
2026-04-21 16:22 10.81474 106.65046 39 ft 6 kts 68°
2026-04-21 16:22 10.81495 106.65099 39 ft 11 kts 68°
2026-04-21 16:22 10.81527 106.65183 39 ft 15 kts 69°
2026-04-21 16:23 10.81568 106.65294 39 ft 19 kts 69°
2026-04-21 16:23 10.81598 106.65372 39 ft 9 kts 75°
2026-04-21 16:23 10.81571 106.65420 39 ft 9 kts 148°
2026-04-21 16:23 10.81549 106.65430 39 ft 0 kts 158°
2026-04-21 16:24 10.81538 106.65434 39 ft 5 kts 159°
2026-04-21 16:24 10.81477 106.65457 39 ft 12 kts 159°
2026-04-21 16:24 10.81404 106.65478 39 ft 7 kts 194°
2026-04-21 16:25 10.81376 106.65435 39 ft 9 kts 248°
2026-04-21 16:25 10.81346 106.65361 39 ft 13 kts 249°
2026-04-21 16:25 10.81310 106.65263 39 ft 17 kts 249°
2026-04-21 16:25 10.81299 106.65237 37 ft 4 kts 247°
2026-04-21 16:26 10.81268 106.65220 39 ft 7 kts 183°
2026-04-21 16:26 10.81244 106.65228 38 ft 2 kts 156°
2026-04-21 16:26 10.81227 106.65236 39 ft 2 kts 156°
2026-04-21 16:26 10.81226 106.65236 39 ft 0 kts 156°